Location: Newark
(39.6172°N, 96.8533°W)
Time: 22:24:46
(UTC+00:00)

Courier 1B Rocket - Visible Passes

Search period start: 17 February 2020 00:00
Search period end: 27 February 2020 00:00
Orbit: 920 x 1202 km, 28.2° (Epoch: 16 February)

Date Brightness Start Highest point End Pass type
(mag) Time Alt. Az. Time Alt. Az. Time Alt. Az.
17 Feb 7.0 09:48:10 21° SE 09:48:10 21° SE 09:50:54 10° ESE visible
17 Feb 6.3 11:34:32 23° SW 11:37:37 31° S 11:44:03 10° SE visible
18 Feb 6.2 10:37:17 32° S 10:37:17 32° S 10:43:01 10° ESE visible
18 Feb 6.7 12:23:59 10° WSW 12:29:31 24° SSW 12:35:20 10° SE visible
19 Feb 7.2 09:40:02 17° SE 09:40:02 17° SE 09:41:53 10° ESE visible
19 Feb 6.3 11:26:24 23° SW 11:28:35 28° S 11:34:38 10° SE visible
20 Feb 6.4 10:29:11 27° SSE 10:29:11 27° SSE 10:33:45 10° SE visible
20 Feb 6.9 12:15:45 10° WSW 12:20:27 19° SSW 12:25:20 10° SSE visible
21 Feb 7.4 09:31:59 13° SE 09:31:59 13° SE 09:32:47 10° ESE visible
21 Feb 6.4 11:18:22 22° SSW 11:19:34 23° SSW 11:24:58 10° SSE visible
22 Feb 6.8 10:21:12 21° SSE 10:21:12 21° SSE 10:24:21 10° SE visible
22 Feb 7.0 12:08:10 10° SW 12:11:22 14° SSW 12:14:39 10° S visible
23 Feb 6.7 11:10:28 17° SSW 11:10:32 17° SSW 11:14:56 10° SSE visible
24 Feb 7.2 10:13:23 14° SSE 10:13:23 14° SSE 10:14:41 10° SSE visible
25 Feb 7.1 11:02:44 12° SSW 11:02:44 12° SSW 11:04:00 10° S visible
